QPF
0.04 0.04 0.04 0.03 0.02 0.02 0.02 0.02 0.02 0.02 0.02 0.02 0.02 0.03 0.06 0.08 0.07 0.05 0.03 0.02 0.02 0.03 0.03 0.03 0.03 0.03 0.03 0.02 0.03 0.03 0.02 0.02 0.02 0.01 0.01 0.01 0.01 0.02 0.02 0.02 0.01 0.01 0.01
0.01 0.01 0.02 0.02 0.02 0.03 0.02 0.02 0.02 0.03 0.02 0.02 0.02 0.03 0.05 0.05 0.06 0.05 0.04 0.03 0.04 0.04 0.04 0.04 0.03 0.03 0.02 0.03 0.05 0.05 0.02 0.02 0.02 0.01 0.01 0.01 0.02 0.02 0.03 0.02 0.01 0.01 0.01
0.01 0.01 0.01 0.01 0.01 0.01 0.02 0.02 0.02 0.03 0.02 0.02 0.02 0.02 0.02 0.03 0.04 0.05 0.05 0.04 0.04 0.03 0.03 0.04 0.03 0.03 0.04 0.06 0.07 0.05 0.02 0.02 0.02 0.01 0.01 0.02 0.02 0.02 0.02 0.01 0.01 0.01 0.01
0.01 0.02 0.02 0.03 0.03 0.03 0.02 0.02 0.02 0.02 0.02 0.02 0.02 0.02 0.02 0.02 0.02 0.03 0.04 0.05 0.04 0.03 0.04 0.04 0.03 0.04 0.05 0.05 0.05 0.03 0.02 0.02 0.01 0.01 0.02 0.02 0.02 0.01 0.01 0.01 0.02 0.02 0.01
0.02 0.03 0.05 0.06 0.06 0.04 0.03 0.02 0.02 0.02 0.02 0.02 0.02 0.02 0.01 0.02 0.02 0.03 0.04 0.04 0.04 0.05 0.05 0.04 0.04 0.05 0.04 0.03 0.02 0.02 0.02 0.02 0.01 0.01 0.01 0.01 0.02 0.02 0.02 0.01 0.02 0.02 0.01
0.02 0.02 0.03 0.04 0.03 0.03 0.03 0.03 0.03 0.03 0.03 0.02 0.01 0.02 0.01 0.02 0.03 0.02 0.02 0.03 0.04 0.04 0.04 0.04 0.04 0.04 0.02 0.02 0.01 0.02 0.02 0.02 0.01 0.01 0.01 0.01 0.03 0.02 0.02 0.02 0.02 0.01 0.01
0.01 0.02 0.04 0.04 0.04 0.03 0.03 0.04 0.04 0.04 0.03 0.03 0.02 0.03 0.03 0.02 0.03 0.01 0.02 0.02 0.02 0.03 0.03 0.03 0.03 0.04 0.04 0.04 0.02 0.01 0.01 0.01 0.01 0.02 0.02 0.01 0.02 0.02 0.02 0.02 0.01 0.01 0.01
0.02 0.03 0.04 0.03 0.03 0.03 0.03 0.03 0.04 0.04 0.04 0.04 0.03 0.03 0.02 0.02 0.02 0.01 0.02 0.03 0.02 0.02 0.02 0.03 0.04 0.06 0.05 0.03 0.02 0.02 0.02 0.01 0.02 0.03 0.02 0.03 0.03 0.02 0.02 0.02 0.01 0.01 0.01
0.02 0.02 0.02 0.02 0.02 0.02 0.02 0.02 0.01 0.02 0.03 0.03 0.03 0.03 0.02 0.02 0.02 0.02 0.02 0.02 0.02 0.02 0.02 0.03 0.03 0.04 0.04 0.04 0.04 0.03 0.02 0.01 0.02 0.03 0.03 0.03 0.02 0.01 0.01 0.01 0.02 0.02 0.01
0.02 0.01 0.01 0.02 0.02 0.02 0.02 0.02 0.01 0.01 0.02 0.02 0.02 0.03 0.03 0.03 0.03 0.02 0.02 0.01 0.02 0.02 0.01 0.02 0.02 0.02 0.03 0.03 0.04 0.03 0.03 0.02 0.02 0.03 0.03 0.02 0.02 0.01 0.01 0.00 0.02 0.02 0.01
0.02 0.02 0.02 0.02 0.02 0.03 0.03 0.03 0.02 0.01 0.02 0.02 0.02 0.04 0.04 0.04 0.04 0.02 0.02 0.02 0.01 0.02 0.02 0.02 0.02 0.02 0.03 0.03 0.04 0.05 0.06 0.06 0.05 0.05 0.04 0.03 0.02 0.01 0.01 0.00 0.01 0.02 0.02
0.01 0.02 0.02 0.03 0.03 0.04 0.04 0.03 0.02 0.02 0.02 0.03 0.04 0.04 0.04 0.03 0.02 0.02 0.02 0.02 0.03 0.03 0.02 0.02 0.02 0.03 0.05 0.06 0.04 0.04 0.06 0.06 0.06 0.07 0.07 0.05 0.03 0.02 0.02 0.01 0.01 0.01 0.02
0.01 0.01 0.02 0.02 0.02 0.02 0.03 0.02 0.02 0.02 0.03 0.04 0.04 0.05 0.04 0.03 0.02 0.01 0.01 0.02 0.03 0.03 0.02 0.02 0.02 0.03 0.04 0.05 0.04 0.04 0.05 0.05 0.05 0.04 0.04 0.04 0.04 0.03 0.02 0.02 0.01 0.01 0.01
0.01 0.01 0.01 0.01 0.01 0.01 0.02 0.02 0.02 0.02 0.02 0.03 0.03 0.03 0.03 0.03 0.02 0.01 0.01 0.01 0.02 0.02 0.02 0.02 0.03 0.05 0.04 0.02 0.03 0.04 0.06 0.06 0.06 0.05 0.05 0.04 0.04 0.03 0.02 0.01 0.01 0.01 0.02
0.01 0.01 0.01 0.01 0.01 0.01 0.01 0.02 0.03 0.03 0.03 0.04 0.03 0.03 0.03 0.03 0.03 0.02 0.01 0.02 0.02 0.04 0.02 0.02 0.03 0.05 0.04 0.03 0.03 0.04 0.05 0.06 0.07 0.08 0.07 0.06 0.04 0.04 0.03 0.02 0.02 0.02 0.02
0.02 0.01 0.01 0.01 0.01 0.01 0.02 0.03 0.05 0.05 0.05 0.04 0.04 0.04 0.03 0.04 0.04 0.02 0.02 0.02 0.03 0.04 0.03 0.03 0.03 0.03 0.03 0.03 0.02 0.02 0.03 0.04 0.04 0.05 0.05 0.04 0.03 0.03 0.03 0.02 0.02 0.02 0.02
0.02 0.02 0.02 0.02 0.02 0.03 0.04 0.05 0.05 0.06 0.06 0.04 0.04 0.05 0.04 0.04 0.03 0.03 0.02 0.02 0.03 0.04 0.03 0.03 0.03 0.04 0.04 0.04 0.04 0.03 0.03 0.04 0.04 0.04 0.05 0.06 0.05 0.05 0.04 0.03 0.03 0.03 0.03
0.02 0.03 0.03 0.03 0.02 0.02 0.03 0.04 0.04 0.04 0.04 0.04 0.03 0.04 0.04 0.03 0.03 0.02 0.02 0.02 0.02 0.02 0.02 0.03 0.03 0.04 0.04 0.04 0.05 0.06 0.06 0.05 0.06 0.06 0.06 0.07 0.06 0.05 0.05 0.05 0.05 0.05 0.04
0.02 0.03 0.03 0.04 0.03 0.03 0.03 0.03 0.03 0.03 0.04 0.04 0.03 0.03 0.03 0.03 0.03 0.03 0.02 0.02 0.02 0.02 0.03 0.03 0.04 0.04 0.03 0.04 0.05 0.06 0.07 0.08 0.08 0.08 0.08 0.09 0.07 0.06 0.04 0.04 0.05 0.07 0.06
0.03 0.03 0.03 0.03 0.04 0.04 0.05 0.06 0.06 0.06 0.05 0.04 0.04 0.03 0.03 0.02 0.02 0.02 0.02 0.03 0.03 0.03 0.04 0.04 0.04 0.03 0.03 0.04 0.05 0.05 0.06 0.07 0.07 0.08 0.08 0.07 0.07 0.05 0.05 0.06 0.07 0.08 0.08
0.03 0.03 0.04 0.04 0.03 0.03 0.03 0.04 0.04 0.05 0.05 0.04 0.02 0.02 0.02 0.01 0.01 0.01 0.02 0.02 0.02 0.02 0.03 0.03 0.03 0.03 0.03 0.03 0.04 0.04 0.05 0.06 0.06 0.06 0.06 0.06 0.06 0.05 0.05 0.05 0.05 0.05 0.06
0.03 0.03 0.04 0.03 0.03 0.02 0.02 0.02 0.02 0.02 0.02 0.02 0.02 0.02 0.02 0.02 0.02 0.02 0.02 0.02 0.02 0.02 0.02 0.03 0.03 0.03 0.03 0.04 0.04 0.04 0.06 0.07 0.05 0.06 0.06 0.06 0.06 0.05 0.05 0.05 0.04 0.04 0.05
0.03 0.03 0.03 0.03 0.03 0.02 0.02 0.02 0.02 0.02 0.02 0.02 0.02 0.02 0.03 0.03 0.03 0.03 0.03 0.03 0.03 0.02 0.03 0.03 0.03 0.03 0.03 0.03 0.03 0.03 0.04 0.05 0.06 0.05 0.06 0.07 0.06 0.06 0.05 0.04 0.04 0.04 0.05
0.02 0.02 0.02 0.02 0.01 0.01 0.01 0.01 0.02 0.02 0.02 0.02 0.02 0.03 0.03 0.03 0.03 0.03 0.03 0.03 0.02 0.02 0.02 0.02 0.02 0.02 0.03 0.03 0.03 0.03 0.03 0.04 0.04 0.04 0.05 0.05 0.06 0.05 0.04 0.04 0.04 0.04 0.05
0.01 0.02 0.02 0.02 0.02 0.01 0.02 0.02 0.01 0.01 0.01 0.01 0.01 0.02 0.02 0.02 0.03 0.03 0.03 0.03 0.02 0.02 0.02 0.02 0.01 0.02 0.02 0.03 0.03 0.03 0.03 0.04 0.04 0.05 0.06 0.06 0.06 0.05 0.03 0.03 0.03 0.03 0.04
0.01 0.01 0.01 0.01 0.01 0.01 0.02 0.02 0.03 0.03 0.02 0.02 0.02 0.02 0.03 0.04 0.04 0.04 0.03 0.04 0.04 0.04 0.03 0.02 0.02 0.02 0.03 0.03 0.03 0.02 0.02 0.02 0.04 0.05 0.04 0.04 0.05 0.05 0.04 0.03 0.03 0.03 0.04
MSLP
1014.72 1015.16 1015.62 1016.04 1016.41 1016.70 1016.94 1017.13 1017.29 1017.46 1017.63 1017.80 1017.97 1018.11 1018.20 1018.22 1018.18 1018.07 1017.91 1017.73 1017.55 1017.41 1017.31 1017.29 1017.33 1017.45 1017.64 1017.90 1018.21 1018.56 1018.96 1019.37 1019.80 1020.23 1020.63 1021.00 1021.31 1021.56 1021.75 1021.88 1021.97 1022.03 1022.07
1014.95 1015.38 1015.82 1016.25 1016.63 1016.95 1017.21 1017.42 1017.61 1017.78 1017.95 1018.12 1018.27 1018.40 1018.48 1018.52 1018.50 1018.43 1018.32 1018.20 1018.09 1018.00 1017.94 1017.94 1017.98 1018.08 1018.22 1018.41 1018.64 1018.91 1019.22 1019.57 1019.94 1020.32 1020.70 1021.05 1021.37 1021.64 1021.85 1022.02 1022.15 1022.25 1022.33
1015.17 1015.60 1016.05 1016.48 1016.88 1017.22 1017.50 1017.74 1017.95 1018.14 1018.31 1018.47 1018.62 1018.74 1018.82 1018.87 1018.87 1018.85 1018.80 1018.75 1018.70 1018.68 1018.68 1018.71 1018.77 1018.86 1018.97 1019.10 1019.27 1019.47 1019.71 1019.98 1020.29 1020.62 1020.95 1021.28 1021.58 1021.84 1022.05 1022.22 1022.35 1022.45 1022.54
1015.33 1015.78 1016.24 1016.69 1017.11 1017.47 1017.79 1018.06 1018.29 1018.50 1018.69 1018.86 1019.00 1019.13 1019.22 1019.28 1019.32 1019.33 1019.34 1019.36 1019.38 1019.42 1019.47 1019.54 1019.62 1019.71 1019.80 1019.90 1020.01 1020.15 1020.33 1020.54 1020.79 1021.07 1021.37 1021.66 1021.93 1022.16 1022.35 1022.49 1022.59 1022.67 1022.74
1015.39 1015.88 1016.37 1016.85 1017.29 1017.69 1018.03 1018.34 1018.61 1018.85 1019.07 1019.26 1019.42 1019.56 1019.67 1019.75 1019.82 1019.87 1019.93 1019.99 1020.07 1020.16 1020.26 1020.36 1020.46 1020.54 1020.62 1020.69 1020.76 1020.86 1020.98 1021.15 1021.35 1021.59 1021.85 1022.11 1022.35 1022.55 1022.71 1022.81 1022.87 1022.90 1022.92
1015.37 1015.90 1016.43 1016.93 1017.40 1017.83 1018.22 1018.57 1018.89 1019.18 1019.43 1019.65 1019.84 1020.00 1020.13 1020.24 1020.33 1020.42 1020.50 1020.61 1020.72 1020.85 1020.98 1021.10 1021.20 1021.29 1021.35 1021.40 1021.44 1021.50 1021.59 1021.72 1021.89 1022.09 1022.32 1022.56 1022.77 1022.94 1023.06 1023.13 1023.15 1023.13 1023.11
1015.27 1015.85 1016.41 1016.95 1017.45 1017.92 1018.35 1018.75 1019.12 1019.46 1019.76 1020.02 1020.24 1020.43 1020.58 1020.71 1020.81 1020.92 1021.03 1021.15 1021.29 1021.44 1021.58 1021.71 1021.82 1021.90 1021.95 1021.98 1022.00 1022.04 1022.10 1022.20 1022.34 1022.52 1022.73 1022.94 1023.13 1023.28 1023.38 1023.42 1023.41 1023.36 1023.30
1015.14 1015.75 1016.34 1016.91 1017.45 1017.97 1018.45 1018.90 1019.31 1019.70 1020.04 1020.35 1020.60 1020.81 1020.98 1021.12 1021.24 1021.36 1021.48 1021.61 1021.76 1021.91 1022.06 1022.20 1022.30 1022.38 1022.43 1022.45 1022.46 1022.47 1022.51 1022.59 1022.70 1022.86 1023.05 1023.24 1023.42 1023.56 1023.64 1023.67 1023.64 1023.57 1023.49
1014.98 1015.63 1016.25 1016.86 1017.44 1017.99 1018.52 1019.02 1019.49 1019.92 1020.31 1020.64 1020.92 1021.15 1021.33 1021.47 1021.60 1021.72 1021.84 1021.97 1022.12 1022.28 1022.44 1022.58 1022.70 1022.78 1022.83 1022.85 1022.85 1022.85 1022.87 1022.93 1023.02 1023.15 1023.31 1023.48 1023.64 1023.77 1023.85 1023.88 1023.85 1023.78 1023.70
1014.83 1015.50 1016.16 1016.81 1017.43 1018.03 1018.61 1019.16 1019.67 1020.14 1020.56 1020.92 1021.21 1021.45 1021.63 1021.78 1021.90 1022.01 1022.13 1022.27 1022.43 1022.59 1022.76 1022.92 1023.05 1023.14 1023.20 1023.23 1023.23 1023.23 1023.24 1023.27 1023.33 1023.44 1023.56 1023.71 1023.84 1023.96 1024.04 1024.07 1024.06 1024.00 1023.93
1014.67 1015.38 1016.08 1016.76 1017.43 1018.08 1018.71 1019.31 1019.86 1020.36 1020.81 1021.18 1021.49 1021.73 1021.91 1022.05 1022.16 1022.27 1022.39 1022.53 1022.69 1022.87 1023.06 1023.23 1023.39 1023.50 1023.58 1023.62 1023.64 1023.63 1023.63 1023.64 1023.68 1023.74 1023.84 1023.95 1024.06 1024.16 1024.23 1024.27 1024.27 1024.24 1024.18
1014.51 1015.25 1015.98 1016.71 1017.43 1018.14 1018.82 1019.46 1020.05 1020.59 1021.05 1021.44 1021.75 1021.99 1022.16 1022.29 1022.40 1022.51 1022.63 1022.77 1022.94 1023.14 1023.34 1023.54 1023.71 1023.86 1023.96 1024.02 1024.05 1024.05 1024.04 1024.04 1024.05 1024.08 1024.14 1024.21 1024.29 1024.36 1024.43 1024.47 1024.48 1024.47 1024.44
1014.33 1015.09 1015.86 1016.64 1017.41 1018.17 1018.90 1019.59 1020.22 1020.79 1021.27 1021.67 1021.98 1022.22 1022.39 1022.52 1022.63 1022.74 1022.86 1023.00 1023.18 1023.38 1023.59 1023.81 1024.00 1024.17 1024.29 1024.38 1024.42 1024.43 1024.42 1024.41 1024.40 1024.40 1024.42 1024.46 1024.51 1024.56 1024.61 1024.65 1024.66 1024.66 1024.64
1014.13 1014.91 1015.71 1016.53 1017.35 1018.16 1018.94 1019.67 1020.33 1020.93 1021.43 1021.84 1022.16 1022.41 1022.58 1022.72 1022.82 1022.93 1023.05 1023.19 1023.37 1023.57 1023.79 1024.00 1024.21 1024.38 1024.52 1024.62 1024.68 1024.70 1024.69 1024.68 1024.66 1024.65 1024.65 1024.66 1024.68 1024.71 1024.74 1024.76 1024.77 1024.77 1024.75
1013.90 1014.69 1015.52 1016.37 1017.23 1018.08 1018.89 1019.65 1020.35 1020.97 1021.49 1021.92 1022.26 1022.51 1022.70 1022.84 1022.96 1023.07 1023.19 1023.33 1023.49 1023.68 1023.89 1024.09 1024.28 1024.45 1024.59 1024.69 1024.76 1024.79 1024.80 1024.79 1024.77 1024.75 1024.74 1024.74 1024.74 1024.75 1024.76 1024.76 1024.76 1024.75 1024.73
1013.67 1014.47 1015.30 1016.17 1017.05 1017.92 1018.75 1019.54 1020.25 1020.89 1021.43 1021.88 1022.23 1022.51 1022.72 1022.88 1023.01 1023.12 1023.25 1023.38 1023.53 1023.69 1023.87 1024.04 1024.21 1024.36 1024.48 1024.58 1024.64 1024.68 1024.70 1024.70 1024.69 1024.68 1024.67 1024.66 1024.66 1024.65 1024.64 1024.63 1024.61 1024.58 1024.54
1013.47 1014.25 1015.08 1015.95 1016.82 1017.69 1018.53 1019.31 1020.04 1020.68 1021.23 1021.70 1022.08 1022.38 1022.61 1022.80 1022.95 1023.08 1023.21 1023.33 1023.47 1023.60 1023.74 1023.88 1024.01 1024.12 1024.22 1024.30 1024.36 1024.40 1024.42 1024.44 1024.45 1024.46 1024.46 1024.45 1024.44 1024.43 1024.40 1024.37 1024.33 1024.28 1024.23
1013.31 1014.07 1014.88 1015.73 1016.58 1017.43 1018.24 1019.02 1019.72 1020.36 1020.92 1021.40 1021.79 1022.12 1022.39 1022.60 1022.79 1022.94 1023.08 1023.20 1023.32 1023.43 1023.54 1023.63 1023.72 1023.80 1023.87 1023.92 1023.97 1024.01 1024.05 1024.08 1024.10 1024.12 1024.14 1024.14 1024.13 1024.11 1024.08 1024.03 1023.97 1023.90 1023.83
1013.21 1013.95 1014.73 1015.54 1016.35 1017.16 1017.94 1018.67 1019.35 1019.97 1020.52 1021.00 1021.41 1021.76 1022.05 1022.30 1022.52 1022.70 1022.85 1022.99 1023.10 1023.20 1023.29 1023.36 1023.41 1023.46 1023.50 1023.54 1023.58 1023.61 1023.65 1023.69 1023.73 1023.77 1023.79 1023.80 1023.80 1023.78 1023.73 1023.67 1023.60 1023.51 1023.41
1013.17 1013.88 1014.63 1015.39 1016.16 1016.91 1017.64 1018.32 1018.96 1019.54 1020.07 1020.53 1020.95 1021.31 1021.63 1021.91 1022.15 1022.36 1022.55 1022.70 1022.83 1022.93 1023.01 1023.08 1023.12 1023.15 1023.18 1023.21 1023.24 1023.27 1023.32 1023.36 1023.41 1023.45 1023.49 1023.50 1023.50 1023.47 1023.42 1023.35 1023.27 1023.17 1023.06
1013.18 1013.86 1014.57 1015.29 1016.01 1016.70 1017.37 1017.99 1018.58 1019.11 1019.60 1020.04 1020.44 1020.80 1021.13 1021.43 1021.70 1021.94 1022.15 1022.34 1022.49 1022.62 1022.72 1022.79 1022.85 1022.89 1022.92 1022.95 1022.99 1023.03 1023.08 1023.13 1023.18 1023.23 1023.26 1023.28 1023.28 1023.25 1023.20 1023.12 1023.03 1022.92 1022.80
1013.21 1013.87 1014.55 1015.22 1015.88 1016.52 1017.13 1017.69 1018.21 1018.69 1019.13 1019.53 1019.90 1020.25 1020.57 1020.87 1021.16 1021.42 1021.67 1021.88 1022.08 1022.24 1022.37 1022.48 1022.57 1022.64 1022.70 1022.75 1022.80 1022.86 1022.92 1022.98 1023.03 1023.08 1023.12 1023.14 1023.14 1023.12 1023.06 1022.99 1022.90 1022.79 1022.67
1013.22 1013.87 1014.51 1015.15 1015.77 1016.36 1016.90 1017.41 1017.87 1018.29 1018.67 1019.02 1019.35 1019.66 1019.96 1020.25 1020.53 1020.81 1021.07 1021.32 1021.55 1021.75 1021.93 1022.09 1022.23 1022.34 1022.44 1022.54 1022.62 1022.70 1022.78 1022.86 1022.93 1022.98 1023.03 1023.05 1023.06 1023.04 1022.99 1022.93 1022.84 1022.74 1022.63
1013.19 1013.82 1014.44 1015.04 1015.62 1016.17 1016.66 1017.11 1017.52 1017.88 1018.20 1018.50 1018.77 1019.04 1019.30 1019.57 1019.83 1020.10 1020.37 1020.64 1020.89 1021.14 1021.37 1021.58 1021.77 1021.94 1022.10 1022.24 1022.37 1022.49 1022.60 1022.70 1022.79 1022.86 1022.91 1022.95 1022.97 1022.96 1022.94 1022.89 1022.82 1022.73 1022.63
1013.08 1013.69 1014.29 1014.87 1015.41 1015.92 1016.37 1016.78 1017.13 1017.44 1017.71 1017.96 1018.18 1018.40 1018.62 1018.84 1019.08 1019.33 1019.59 1019.86 1020.13 1020.41 1020.67 1020.93 1021.18 1021.41 1021.62 1021.82 1022.00 1022.17 1022.31 1022.44 1022.56 1022.65 1022.73 1022.79 1022.82 1022.84 1022.83 1022.81 1022.76 1022.70 1022.61
1012.88 1013.47 1014.04 1014.59 1015.11 1015.58 1016.00 1016.37 1016.69 1016.96 1017.19 1017.40 1017.58 1017.75 1017.93 1018.12 1018.32 1018.54 1018.78 1019.04 1019.31 1019.60 1019.89 1020.18 1020.47 1020.75 1021.02 1021.27 1021.50 1021.71 1021.90 1022.07 1022.21 1022.34 1022.44 1022.52 1022.58 1022.62 1022.64 1022.64 1022.62 1022.58 1022.51
Thickness
5773 5770 5768 5766 5764 5762 5760 5758 5756 5754 5753 5752 5751 5750 5749 5748 5747 5745 5745 5742 5740 5739 5737 5736 5734 5734 5735 5736 5735 5734 5732 5730 5726 5726 5727 5725 5720 5718 5717 5716 5715 5713 5710
5769 5766 5763 5761 5759 5757 5756 5753 5752 5749 5748 5747 5746 5745 5744 5743 5741 5740 5738 5737 5735 5733 5731 5730 5728 5728 5726 5727 5727 5726 5725 5723 5721 5716 5718 5718 5715 5713 5711 5710 5711 5710 5707
5765 5762 5759 5756 5754 5752 5750 5749 5747 5745 5743 5743 5741 5740 5738 5737 5735 5734 5732 5730 5729 5728 5726 5724 5722 5721 5719 5720 5718 5718 5718 5718 5716 5714 5713 5712 5710 5709 5706 5706 5706 5703 5703
5760 5757 5754 5752 5749 5747 5745 5743 5741 5739 5738 5736 5736 5734 5733 5731 5729 5728 5726 5724 5722 5721 5719 5717 5716 5714 5713 5712 5711 5710 5710 5710 5709 5709 5708 5706 5704 5702 5700 5700 5699 5698 5697
5754 5751 5748 5747 5744 5742 5739 5737 5735 5733 5733 5730 5729 5728 5727 5725 5723 5721 5718 5717 5715 5714 5712 5711 5710 5707 5705 5704 5705 5704 5703 5703 5704 5703 5702 5701 5698 5694 5694 5695 5693 5693 5692
5748 5745 5743 5741 5738 5736 5733 5731 5729 5727 5725 5724 5722 5721 5720 5719 5715 5711 5710 5710 5708 5706 5705 5704 5703 5701 5698 5696 5694 5694 5693 5694 5695 5694 5695 5693 5689 5689 5688 5688 5687 5685 5684
5742 5739 5737 5734 5731 5729 5727 5724 5722 5720 5718 5717 5715 5714 5712 5710 5706 5704 5702 5702 5702 5700 5698 5696 5697 5697 5693 5693 5690 5687 5686 5685 5684 5685 5686 5684 5684 5683 5680 5680 5678 5677 5676
5735 5732 5730 5728 5725 5723 5720 5718 5716 5714 5712 5710 5708 5707 5705 5703 5699 5697 5695 5695 5695 5693 5691 5690 5688 5687 5687 5684 5685 5684 5683 5683 5681 5679 5679 5678 5678 5676 5673 5672 5671 5670 5670
5728 5726 5724 5721 5719 5716 5714 5712 5710 5707 5706 5704 5703 5700 5698 5696 5693 5690 5687 5689 5688 5686 5685 5683 5682 5680 5677 5675 5676 5676 5676 5677 5675 5673 5671 5669 5668 5666 5665 5665 5665 5663 5663
5722 5719 5717 5715 5712 5710 5708 5706 5704 5702 5700 5699 5697 5695 5692 5690 5685 5683 5680 5683 5682 5680 5679 5678 5674 5672 5669 5666 5668 5669 5668 5669 5669 5668 5665 5663 5662 5661 5658 5657 5658 5657 5657
5717 5713 5711 5708 5706 5704 5702 5699 5697 5695 5693 5691 5689 5688 5685 5683 5679 5675 5673 5674 5675 5674 5673 5673 5670 5665 5661 5659 5658 5660 5660 5659 5661 5661 5660 5659 5658 5656 5654 5652 5651 5649 5648
5710 5706 5703 5701 5700 5699 5695 5692 5690 5688 5685 5683 5681 5680 5680 5677 5674 5669 5666 5664 5664 5665 5665 5666 5663 5656 5653 5651 5652 5652 5651 5650 5654 5654 5654 5652 5651 5650 5649 5647 5644 5642 5639
5701 5698 5696 5694 5692 5691 5688 5686 5684 5681 5680 5678 5677 5675 5673 5672 5669 5663 5660 5657 5655 5655 5657 5654 5651 5647 5646 5647 5646 5645 5644 5647 5648 5647 5646 5646 5645 5644 5642 5639 5638 5635 5632
5693 5690 5689 5686 5685 5683 5681 5680 5678 5675 5673 5671 5670 5668 5667 5664 5662 5659 5656 5653 5649 5649 5649 5646 5642 5640 5639 5640 5641 5641 5641 5641 5641 5640 5640 5640 5639 5636 5634 5633 5631 5629 5627
5685 5682 5681 5679 5678 5675 5674 5672 5669 5667 5665 5661 5662 5660 5658 5656 5652 5647 5646 5646 5644 5642 5640 5640 5640 5639 5637 5636 5636 5636 5635 5634 5632 5631 5630 5630 5629 5628 5627 5626 5624 5623 5620
5676 5674 5673 5672 5670 5668 5666 5663 5659 5657 5654 5651 5648 5647 5648 5644 5640 5637 5635 5633 5631 5629 5629 5633 5633 5632 5631 5631 5630 5629 5628 5627 5626 5625 5623 5622 5622 5620 5619 5618 5617 5616 5615
5668 5666 5665 5664 5662 5660 5658 5656 5653 5649 5645 5642 5640 5638 5636 5633 5631 5628 5625 5623 5622 5620 5623 5627 5627 5626 5625 5624 5623 5622 5621 5621 5619 5618 5617 5616 5615 5614 5613 5612 5610 5609 5608
5661 5658 5656 5655 5653 5652 5650 5647 5646 5644 5641 5639 5635 5630 5627 5624 5622 5619 5617 5615 5618 5616 5620 5621 5621 5620 5619 5617 5616 5615 5614 5613 5612 5611 5611 5610 5608 5607 5606 5604 5604 5602 5601
5653 5651 5649 5646 5644 5643 5641 5639 5637 5634 5632 5631 5630 5625 5619 5616 5614 5612 5609 5612 5615 5615 5614 5614 5614 5613 5612 5611 5610 5608 5607 5606 5606 5605 5605 5603 5602 5600 5599 5599 5598 5595 5593
5644 5641 5638 5637 5635 5633 5631 5629 5627 5625 5623 5622 5620 5618 5614 5612 5611 5609 5607 5608 5608 5608 5607 5607 5606 5605 5604 5603 5602 5602 5601 5600 5599 5598 5598 5597 5596 5595 5593 5591 5590 5590 5589
5636 5633 5628 5628 5627 5624 5622 5619 5617 5615 5614 5613 5611 5609 5603 5604 5604 5603 5602 5600 5600 5599 5599 5598 5598 5597 5596 5595 5594 5594 5593 5593 5593 5592 5591 5590 5589 5588 5587 5586 5584 5583 5583
5627 5625 5622 5620 5617 5614 5612 5611 5609 5607 5606 5604 5603 5601 5595 5596 5596 5596 5595 5593 5592 5591 5591 5590 5590 5589 5587 5586 5585 5585 5585 5585 5584 5584 5583 5582 5581 5581 5580 5579 5578 5577 5577
5618 5616 5614 5611 5609 5605 5604 5603 5601 5599 5598 5596 5594 5593 5591 5590 5589 5588 5586 5585 5584 5583 5582 5581 5581 5580 5579 5578 5577 5576 5576 5575 5575 5574 5575 5575 5575 5574 5573 5572 5572 5571 5571
5611 5608 5605 5603 5601 5599 5597 5595 5593 5592 5590 5588 5587 5585 5584 5582 5581 5580 5579 5577 5576 5575 5573 5573 5572 5572 5571 5570 5570 5569 5569 5567 5567 5567 5567 5567 5567 5567 5567 5566 5565 5565 5564
5603 5601 5598 5596 5593 5591 5589 5587 5586 5584 5583 5581 5579 5578 5577 5576 5574 5573 5571 5569 5567 5566 5565 5564 5564 5564 5563 5562 5562 5562 5560 5558 5557 5558 5558 5559 5560 5560 5559 5558 5558 5557 5557
5596 5593 5590 5588 5586 5584 5582 5580 5578 5576 5575 5573 5571 5570 5569 5568 5567 5565 5564 5562 5560 5559 5558 5558 5557 5556 5556 5556 5555 5553 5552 5551 5550 5549 5550 5552 5553 5553 5552 5552 5551 5551 5550